Overview Statistics Trail Chart Weather Telemetry Raw packets
 

This is the latest recevied weather packets stored in our database for station/object KC1BRV. If no packets are shown the sender has not sent any weather packets the latest 10 day(s).

<< 22 23 24 25 26 27 28 >>
Time Temp. Humidity Pressure Rain* Wind** Luminosity Snow
1788465796 26.11° C 79% 1013.1 hPa 0 mm - 161 W/m² -
1788465492 26.11° C 80% 1013.1 hPa 0 mm - 179 W/m² -
1788465188 26.11° C 80% 1013.2 hPa 0 mm - 185 W/m² -
1788464882 26.11° C 79% 1013.3 hPa 0 mm - 171 W/m² -
1788464578 26.11° C 78% 1013.5 hPa 0 mm - 120 W/m² -
1788464274 26.11° C 77% 1013.4 hPa 0 mm - 186 W/m² -
1788463989 26.11° C 79% 1013.6 hPa 0 mm - 179 W/m² -
1788463665 26.11° C 78% 1013.6 hPa 0 mm - 114 W/m² -
1788463355 26.11° C 78% 1013.5 hPa 0 mm - 189 W/m² -
1788463051 26.11° C 79% 1013.6 hPa 0 mm - 190 W/m² -
1788462746 26.11° C 78% 1013.7 hPa 0 mm - 212 W/m² -
1788462435 26.11° C 78% 1013.7 hPa 0 mm - 211 W/m² -
1788462135 25.56° C 80% 1013.9 hPa 0 mm - 242 W/m² -
1788461830 25.56° C 82% 1013.6 hPa 0 mm - 236 W/m² -
1788461530 25.56° C 82% 1013.8 hPa 0 mm - 217 W/m² -
1788461227 25.56° C 81% 1013.9 hPa 0 mm - 204 W/m² -
1788460922 25.56° C 83% 1013.8 hPa 0 mm - 188 W/m² -
1788460621 25.56° C 81% 1013.8 hPa 0 mm - 146 W/m² -
1788460316 25.56° C 81% 1014.1 hPa 0 mm - 173 W/m² -
1788460015 25.56° C 80% 1014 hPa 0 mm - 178 W/m² -
1788459711 25.56° C 81% 1014 hPa 0 mm - 140 W/m² -
1788459409 25.56° C 80% 1013.9 hPa 0 mm - 125 W/m² -
1788459104 25.56° C 79% 1014.1 hPa 0 mm - 172 W/m² -
1788458800 26.11° C 78% 1014.1 hPa 0 mm - 268 W/m² -
1788458500 25.56° C 79% 1014 hPa 0 mm - 509 W/m² -

* Rain latest hour (hover to see other rain measurements)
** Current wind speed in m/s (hover to see current wind gust speed)